TimeMST,TemperatureF,Dew PointF,Humidity,Sea Level PressureIn,VisibilityMPH,Wind Direction,Wind SpeedMPH,Gust SpeedMPH,PrecipitationIn,Events,Conditions,WindDirDegrees,DateUTC
12:53 AM,18.0,10.0,71,30.32,10.0,Calm,Calm,-,N/A,,Clear,0,2013-01-21 07:53:00
1:53 AM,14.0,8.1,77,30.32,10.0,Calm,Calm,-,N/A,,Clear,0,2013-01-21 08:53:00
2:53 AM,15.1,9.0,77,30.31,10.0,Calm,Calm,-,N/A,,Clear,0,2013-01-21 09:53:00
3:53 AM,16.0,9.0,74,30.30,10.0,Calm,Calm,-,N/A,,Clear,0,2013-01-21 10:53:00
4:53 AM,14.0,8.1,77,30.30,10.0,Calm,Calm,-,N/A,,Clear,0,2013-01-21 11:53:00
5:53 AM,15.1,8.1,74,30.30,10.0,South,3.5,-,N/A,,Clear,190,2013-01-21 12:53:00
6:53 AM,14.0,8.1,77,30.32,10.0,Calm,Calm,-,N/A,,Clear,0,2013-01-21 13:53:00
7:53 AM,12.9,8.1,81,30.32,10.0,SE,3.5,-,N/A,,Clear,130,2013-01-21 14:53:00
8:53 AM,18.0,10.0,71,30.32,10.0,Calm,Calm,-,N/A,,Clear,0,2013-01-21 15:53:00
9:53 AM,21.9,12.9,68,30.31,8.0,Calm,Calm,-,N/A,,Clear,0,2013-01-21 16:53:00
10:53 AM,26.1,14.0,60,30.30,9.0,Calm,Calm,-,N/A,,Clear,0,2013-01-21 17:53:00
11:53 AM,33.1,15.1,48,30.25,10.0,East,3.5,-,N/A,,Clear,80,2013-01-21 18:53:00
12:53 PM,42.1,14.0,32,30.16,10.0,SSE,3.5,-,N/A,,Clear,160,2013-01-21 19:53:00
1:53 PM,39.9,18.0,41,30.16,10.0,Calm,Calm,-,N/A,,Clear,0,2013-01-21 20:53:00
2:53 PM,39.0,19.9,46,30.16,10.0,SE,3.5,-,N/A,,Clear,140,2013-01-21 21:53:00
3:53 PM,35.1,19.9,54,30.17,10.0,Calm,Calm,-,N/A,,Clear,0,2013-01-21 22:53:00
4:53 PM,30.0,18.0,61,30.18,10.0,WNW,3.5,-,N/A,,Clear,290,2013-01-21 23:53:00
5:53 PM,37.9,12.9,36,30.13,10.0,Calm,Calm,-,N/A,,Clear,0,2013-01-22 00:53:00
6:53 PM,33.1,12.9,43,30.17,10.0,Calm,Calm,-,N/A,,Clear,0,2013-01-22 01:53:00
7:53 PM,28.0,12.0,51,30.18,10.0,SE,3.5,-,N/A,,Clear,140,2013-01-22 02:53:00
8:53 PM,32.0,9.0,38,30.14,10.0,SSW,4.6,-,N/A,,Clear,200,2013-01-22 03:53:00
9:53 PM,32.0,9.0,38,30.13,10.0,WNW,3.5,-,N/A,,Clear,290,2013-01-22 04:53:00
10:53 PM,35.1,7.0,31,30.11,10.0,Calm,Calm,-,N/A,,Clear,0,2013-01-22 05:53:00
11:53 PM,28.9,7.0,40,30.12,10.0,West,4.6,-,N/A,,Clear,280,2013-01-22 06:53:00